Regional Weather Roundup
Issued by NWS

Home | Current Version | Previous Version | Graphics & Text | Print | Product List | Glossary On
Versions: 1 2 3 4 5 6 7 8 9 10 11 12 13 14 15 16 17 18 19 20 21 22 23 24 25 26 27 28 29 30 31 32 33 34 35 36 37 38 39 40 41 42 43 44 45 46 47 48 49 50
000
ASUS43 KLSX 160407
RWRMO

WEATHER SUMMARY FOR MISSOURI
NATIONAL WEATHER SERVICE SPRINGFIELD MO
1000 PM CST MON JAN 15 2018

NOTE: "FAIR" INDICATES FEW OR NO CLOUDS BELOW 12,000 FEET WITH NO
       SIGNIFICANT WEATHER AND/OR OBSTRUCTIONS TO VISIBILITY.
       CURRENT SKY AND/OR WEATHER CONDITIONS ARE NOT AVAILABLE FOR
       CHILLICOTHE AND FARMINGTON.

MOZ001>031-035>038-043-044-053-054-160500-
...NORTHERN AND WESTERN MISSOURI...

CITY           SKY/WX    TMP DP  RH WIND       PRES   REMARKS
KANSAS CTY INT CLEAR      1  -7  68 NW9       30.68R WCI -14
KANSAS C DTWN  CLEAR      4  -6  63 NW14G21   30.71R WCI -14
LEE`S SUMMIT   PTCLDY     3  -6  66 NW12      30.68R WCI -13
ST JOSEPH        N/A    N/A N/A N/A MISG      30.72R
CHILLICOTHE      N/A      1 -10  60 NW10      30.68R WCI -15
KIRKSVILLE     PTCLDY    -1  -7  75 NW12      30.59R WCI -18

$$
MOZ066>068-077>081-088>096-101>105-160500-
...SOUTHWEST MISSOURI...

CITY           SKY/WX    TMP DP  RH WIND       PRES   REMARKS
SPRINGFIELD    CLOUDY     7  -1  70 NW14      30.61R WCI -10
JOPLIN         CLOUDY     6  -2  69 NW14      30.70R WCI -11

$$
MOZ032>034-039>042-045>050-055>058-069>072-160500-
...CENTRAL MISSOURI...

CITY           SKY/WX    TMP DP  RH WIND       PRES   REMARKS
COLUMBIA       CLEAR      4  -4  69 NW13      30.61R WCI -13
JEFFERSON CITY CLEAR      6  -4  63 NW14      30.66R WCI -11
ROLLA          PTCLDY     5  -3  69 W12       30.59R WCI -11
SEDALIA        CLEAR      4  -1  80 NW14      30.65R WCI -14
WARRENSBURG    CLEAR      3  -6  66 NW5       30.69S WCI  -6
OSAGE BEACH    CLOUDY     6  -2  69 NW10G16   30.65R WCI  -9

$$
MOZ051-052-059>065-160500-
...EAST CENTRAL MISSOURI...

CITY           SKY/WX    TMP DP  RH WIND       PRES   REMARKS
ST LOUIS INTL  PTCLDY     8  -2  63 NW13G23   30.58R WCI  -8
SPIRIT OF STL  CLOUDY     8  -2  63 W15G22    30.61R WCI  -9
ST CHARLES     MOCLDY     7  -3  64 NW9       30.61R WCI  -7

$$
MOZ072>076-082>087-097>100-106>115-160500-
...SOUTH CENTRAL AND SOUTHEAST MISSOURI...

CITY           SKY/WX    TMP DP  RH WIND       PRES   REMARKS
CAPE GIRARDEAU CLOUDY    17   5  59 NW16      30.56R WCI   2
FARMINGTON     FAIR      11   0  61 NW12      30.55R WCI  -3
POPLAR BLUFF   CLOUDY    18   6  59 N17       30.56R WCI   3
WEST PLAINS    CLOUDY    12  -1  56 NW10G22   30.55R WCI  -1

$$



USA.gov is the U.S. government's official web portal to all federal, state and local government web resources and services.